Temp_Advection
nan nan nan nan nan nan nan nan nan nan nan nan nan nan nan nan nan nan nan nan nan nan nan nan nan nan nan nan nan nan nan nan
nan 0 0 0 0 0 0 -0 -0 0 0 0 0 0 0 0 0 0 0 0 -0 -0 0 0 0 -0 -0 -0 -0 -0 -0 nan
nan 0 0 0 0 0 0 -0 -0 -0 -0 0 0 -0 -0 0 0 0 0 0 0 0 -0 -0 0 0 -0 -0 -0 -1 -0 nan
nan 0 0 0 0 0 -0 0 -0 -0 -0 -0 -0 -0 -0 0 0 0 0 0 -0 -0 0 0 0 -0 0 0 -0 -0 -0 nan
nan 0 0 0 0 0 -0 -0 0 -0 -0 -0 -0 -0 -0 -0 0 0 0 0 0 -0 0 0 1 0 0 0 -0 -0 0 nan
nan -0 -0 -0 -0 -0 -0 -0 -0 -0 -0 -0 -0 -0 -0 -0 -0 -0 -0 -0 -0 -0 -0 0 0 1 1 0 0 -0 -1 nan
nan -0 -0 -0 -0 -0 -0 -0 -0 -0 -0 -1 -1 -0 -0 -0 -0 -0 -0 -0 -0 -0 -0 -0 0 1 1 0 0 0 -0 nan
nan -0 -0 -0 -0 -0 -0 -0 -0 -1 -1 -1 -1 -1 -1 -1 -0 -1 -1 -1 -1 -1 -1 -1 0 1 0 0 0 0 1 nan
nan -0 -0 -0 -0 -0 -0 -0 -0 -1 -1 -1 -1 -1 -1 -1 -1 -1 -1 -1 -1 -1 -0 -1 -1 -1 -1 0 1 0 0 nan
nan -0 -0 -0 -0 -0 -0 -0 -0 -0 -0 -1 -1 -1 -1 -1 -1 -1 -1 -1 -1 -1 -1 -1 -1 -1 -1 -0 0 0 -0 nan
nan -0 -0 -0 -0 -0 -0 -0 -0 -0 -0 0 -0 -1 -1 -1 -1 -1 -1 -1 -1 -1 -0 -1 -2 -2 -2 -2 -1 -1 -0 nan
nan -0 -0 -0 -0 -0 0 -0 -0 -0 -0 -0 0 -0 -1 -1 -2 -2 -2 -2 -2 -2 -2 -1 -2 -3 -3 -3 -2 -1 -1 nan
nan -0 -0 -0 -0 0 0 -0 -0 -0 -0 -1 -0 -0 -1 -1 -2 -2 -2 -2 -2 -1 -1 -1 -1 -2 -3 -5 -4 -2 -1 nan
nan -0 -0 -0 -0 -0 -0 -0 -0 -0 -0 -0 -1 -1 -1 -1 -1 -1 -1 -1 -1 -1 -0 -0 -0 0 -0 -2 -2 -3 -0 nan
nan -0 -0 -0 -0 -0 -0 -0 0 -0 -0 -1 -1 -1 -1 -0 -1 -0 -0 -0 -0 -0 -0 -0 -1 -1 0 -0 -1 -1 -3 nan
nan -0 -0 -0 0 -0 -0 -0 -0 -1 -1 -1 -1 -1 -1 -0 -0 0 -0 -0 -1 -1 -0 -0 -0 -1 -1 -0 0 -1 -1 nan
nan -0 -0 -0 -0 -0 -0 -0 -0 -0 -0 -0 -0 -1 -0 -0 -0 0 -0 -0 -0 -1 -1 -0 -0 -0 -1 -1 -1 -1 -1 nan
nan -0 -0 -0 -0 -0 -0 -0 -0 -0 -0 -0 -0 -0 -0 -1 -0 -0 0 0 -0 -0 -0 -1 -1 -0 -1 -0 0 -1 -1 nan
nan -0 -0 -0 -0 -0 -0 -0 -0 -0 -0 -0 -0 -1 -1 -1 -1 -1 -0 -0 0 0 -0 -0 -1 -1 -1 -1 -0 -0 -1 nan
nan nan nan nan nan nan nan nan nan nan nan nan nan nan nan nan nan nan nan nan nan nan nan nan nan nan nan nan nan nan nan nan
Wind_Speed
10 9 8 6 4 2 2 2 4 4 4 5 5 5 8 10 11 13 16 17 17 18 18 19 20 20 19 18 17 17 17 15
9 8 7 5 4 3 3 3 5 5 5 6 7 7 9 10 11 14 15 15 16 18 19 20 22 22 21 21 20 21 20 19
7 5 5 4 2 2 3 5 6 7 8 9 10 10 10 12 13 13 15 17 17 19 20 21 23 24 24 24 24 25 23 23
3 4 4 4 3 3 4 6 7 9 10 12 13 15 16 16 17 18 18 18 19 21 22 23 24 25 26 25 28 28 27 27
2 1 2 3 3 4 5 6 8 10 12 14 16 18 18 20 20 21 21 22 22 23 24 24 25 25 27 26 26 29 32 30
3 3 2 3 4 5 6 8 10 12 15 17 19 20 21 21 23 22 23 24 25 26 26 27 28 28 28 30 28 26 28 31
5 4 4 4 5 6 8 10 12 15 17 18 21 22 22 23 23 24 26 26 27 29 30 30 30 31 31 31 32 31 30 31
5 6 5 6 6 8 10 12 14 15 18 19 21 22 22 23 25 25 26 28 28 30 31 33 34 34 34 34 34 34 36 34
5 6 7 7 7 9 10 12 14 17 18 19 21 22 23 25 27 29 29 29 29 30 30 30 32 34 36 37 37 37 36 40
6 7 8 8 8 9 10 12 14 15 17 19 20 22 24 26 28 30 31 32 32 32 31 31 31 31 33 36 37 39 40 38
6 7 7 8 9 10 11 11 12 15 17 20 23 24 25 26 28 29 30 31 29 28 27 28 31 32 33 34 37 38 40 40
4 5 6 6 7 7 8 9 11 14 17 19 22 24 25 26 26 27 28 26 24 23 24 24 25 27 31 35 36 37 37 40
4 5 5 6 6 7 9 11 13 15 17 19 20 23 25 25 26 27 27 24 21 19 21 23 23 23 28 30 33 33 30 31
4 4 4 6 8 9 11 12 14 16 19 22 23 23 25 26 26 25 24 24 21 18 18 22 21 18 19 25 17 24 12 8
3 4 5 6 8 8 8 9 10 14 19 23 25 26 27 26 26 23 23 21 21 20 18 18 21 18 14 10 9 8 30 11
1 3 5 5 6 6 7 9 11 14 17 20 23 27 29 30 28 25 22 20 18 16 15 16 17 19 18 13 17 24 16 21
3 3 3 4 5 6 8 9 11 12 13 15 19 23 27 29 31 29 26 23 19 17 15 15 15 17 17 20 19 19 24 28
5 6 4 5 5 7 7 9 10 11 13 15 17 19 22 25 28 31 30 27 22 18 15 13 14 15 15 16 18 16 17 20
7 7 6 4 5 5 7 8 10 12 15 16 17 18 19 22 24 26 29 29 25 21 18 15 15 14 15 15 16 19 22 26
9 9 7 3 4 5 7 8 11 13 15 17 17 18 19 19 20 21 22 25 27 26 22 20 17 17 15 13 13 15 17 18
Wind_Direction
156 164 164 161 173 198 253 280 296 318 309 302 295 283 277 272 266 261 260 262 268 273 275 275 277 278 278 274 270 267 263 252
158 164 169 187 193 209 251 277 290 293 288 284 287 284 281 278 275 272 267 267 265 261 260 265 269 271 271 272 272 269 264 259
161 173 184 187 225 226 258 271 277 281 283 285 284 280 278 280 279 276 274 271 268 266 268 265 262 265 267 268 269 266 266 265
181 184 199 208 225 258 263 275 283 288 290 288 288 288 284 281 280 279 278 274 269 268 266 265 265 264 264 264 265 268 266 264
265 227 217 233 244 255 272 284 295 301 299 298 296 291 289 286 283 281 278 275 273 269 267 267 266 265 262 263 264 261 264 263
270 283 275 269 289 291 290 297 302 306 302 302 298 295 293 289 287 286 283 282 281 279 275 270 265 263 261 260 257 262 266 262
276 286 290 303 316 314 307 303 304 304 301 303 298 298 295 293 292 291 291 289 286 284 282 279 274 267 260 258 258 254 261 261
289 298 305 311 309 313 314 313 312 309 305 301 297 295 295 294 293 293 291 288 287 284 282 281 278 275 268 261 256 253 251 257
305 314 322 322 318 316 313 312 311 306 304 305 303 303 305 304 302 301 300 297 295 291 285 281 276 273 271 268 263 257 254 252
308 317 334 336 327 324 319 312 312 312 313 314 312 311 309 307 306 304 302 300 299 298 295 290 285 280 273 267 263 261 257 253
311 321 329 332 332 329 325 326 323 323 324 322 321 319 316 313 309 305 304 303 303 299 294 293 291 287 286 278 272 263 259 257
296 309 334 347 347 343 341 343 345 343 340 339 339 335 333 331 325 320 318 316 312 308 305 300 301 298 289 281 277 275 271 257
317 342 7 8 3 6 1 6 6 2 359 355 352 347 345 346 342 337 333 332 327 322 318 314 315 318 311 301 287 285 284 280
352 4 23 23 21 23 23 24 23 22 20 15 9 6 1 358 355 352 349 341 338 331 324 317 312 320 318 321 326 309 274 291
360 15 17 33 43 43 41 40 39 29 23 22 19 16 13 9 7 3 358 352 343 336 326 320 317 314 308 297 324 308 315 291
308 1 10 25 27 19 16 17 20 21 20 23 23 21 21 17 14 10 7 358 347 339 326 317 314 311 310 295 268 272 294 304
250 301 335 0 6 4 9 15 20 16 16 18 22 25 23 20 16 14 12 8 2 351 335 321 311 306 298 291 291 286 274 280
253 275 317 326 355 6 2 7 14 11 14 15 17 18 20 20 19 18 17 12 10 3 354 340 324 312 302 289 281 285 283 289
264 283 293 328 1 14 16 14 21 23 21 18 15 16 17 17 16 18 21 19 17 14 12 7 359 341 323 309 291 284 278 272
256 269 279 326 6 19 27 28 31 28 27 24 22 21 20 18 17 17 18 23 23 20 19 18 19 15 358 338 318 297 294 288
Height
1529 1530 1530 1530 1529 1529 1529 1528 1528 1528 1528 1527 1526 1525 1525 1524 1523 1522 1521 1520 1520 1520 1520 1520 1519 1519 1519 1519 1519 1519 1519 1520
1529 1529 1530 1529 1528 1527 1528 1527 1526 1526 1525 1525 1525 1522 1523 1522 1520 1520 1518 1517 1516 1514 1514 1514 1514 1513 1514 1515 1515 1515 1515 1516
1529 1529 1529 1528 1528 1527 1527 1526 1525 1525 1523 1523 1522 1520 1519 1519 1518 1516 1515 1513 1512 1511 1511 1510 1509 1508 1508 1510 1510 1510 1510 1511
1529 1528 1528 1527 1527 1526 1525 1525 1524 1522 1520 1518 1519 1518 1515 1515 1515 1513 1511 1509 1508 1507 1506 1505 1504 1503 1503 1503 1503 1504 1505 1505
1528 1528 1527 1526 1525 1525 1524 1523 1522 1520 1517 1514 1514 1513 1511 1511 1510 1508 1506 1504 1503 1503 1502 1500 1499 1498 1497 1496 1497 1497 1497 1498
1525 1526 1525 1525 1524 1523 1522 1520 1519 1517 1514 1512 1510 1509 1507 1505 1503 1502 1500 1498 1497 1495 1495 1493 1492 1491 1490 1489 1490 1490 1490 1491
1523 1523 1523 1522 1522 1521 1520 1518 1516 1514 1511 1509 1506 1505 1502 1500 1498 1496 1494 1492 1490 1488 1487 1486 1485 1484 1483 1482 1482 1483 1483 1484
1522 1521 1521 1521 1519 1519 1518 1517 1514 1511 1508 1505 1503 1500 1498 1495 1493 1490 1488 1487 1485 1483 1480 1477 1476 1475 1475 1474 1474 1474 1475 1476
1520 1520 1520 1518 1517 1516 1515 1513 1511 1509 1505 1503 1499 1496 1493 1490 1487 1484 1481 1479 1477 1475 1473 1470 1468 1467 1465 1464 1464 1465 1465 1466
1518 1517 1517 1516 1515 1513 1511 1509 1507 1505 1503 1500 1496 1493 1489 1486 1483 1479 1476 1473 1471 1468 1464 1461 1459 1457 1456 1455 1455 1455 1455 1457
1516 1516 1514 1514 1513 1511 1509 1507 1504 1502 1499 1497 1494 1489 1486 1482 1479 1475 1470 1467 1465 1462 1459 1455 1451 1449 1447 1445 1443 1444 1446 1447
1513 1512 1512 1511 1510 1509 1507 1505 1502 1500 1497 1492 1490 1486 1481 1477 1473 1469 1465 1461 1459 1456 1453 1451 1448 1444 1440 1435 1434 1433 1434 1437
1512 1512 1511 1510 1509 1507 1505 1503 1501 1499 1495 1493 1486 1484 1480 1474 1469 1465 1460 1457 1454 1452 1450 1447 1444 1442 1436 1430 1427 1426 1428 1428
1511 1511 1510 1509 1507 1505 1503 1502 1501 1498 1496 1492 1488 1482 1479 1474 1468 1463 1459 1456 1453 1450 1448 1444 1443 1442 1439 1435 1424 1421 1420 1424
1510 1511 1510 1509 1507 1506 1504 1503 1501 1499 1494 1492 1489 1483 1478 1474 1469 1463 1459 1455 1452 1449 1446 1444 1439 1440 1440 1440 1434 1426 1419 1421
1509 1510 1511 1510 1508 1506 1505 1502 1499 1497 1495 1491 1489 1484 1478 1474 1470 1464 1459 1455 1451 1447 1445 1442 1439 1436 1436 1436 1435 1433 1430 1418
1508 1508 1509 1509 1506 1507 1503 1501 1498 1498 1495 1491 1488 1484 1479 1475 1471 1465 1460 1454 1449 1446 1442 1440 1438 1435 1433 1432 1430 1428 1428 1424
1509 1508 1508 1508 1506 1504 1503 1501 1499 1498 1495 1491 1487 1484 1480 1477 1472 1468 1462 1456 1451 1447 1442 1439 1436 1433 1430 1428 1427 1425 1423 1421
1509 1508 1508 1507 1504 1503 1503 1502 1498 1496 1493 1490 1487 1484 1481 1477 1473 1469 1464 1459 1454 1449 1443 1439 1434 1431 1427 1424 1422 1420 1418 1417
1508 1507 1508 1507 1504 1504 1502 1502 1498 1495 1493 1490 1487 1484 1482 1479 1475 1471 1467 1462 1456 1450 1445 1440 1435 1430 1425 1421 1417 1415 1413 1412